Regional Weather Roundup
Issued by NWS Green Bay, WI

Home | Current Version | Previous Version | Graphics & Text | Print | Product List | Glossary Off
Versions: 1 2 3 4 5 6 7 8 9 10 11 12 13 14 15 16 17 18 19 20 21 22 23 24 25 26 27 28 29 30 31 32 33 34 35 36 37 38 39 40 41 42 43 44 45 46 47 48 49 50

000
ASUS43 KGRB 230359
RWRGRB

NORTH-CENTRAL AND NORTHEAST WISCONSIN REGIONAL WEATHER ROUNDUP
NATIONAL WEATHER SERVICE GREEN BAY WI
1000 PM CST SAT NOV 22 2014

WIZ005-009-010>012-018-019-230500-
NORTH CENTRAL WISCONSIN

CITY           SKY/WX    TMP DP  RH WIND       PRES   REMARKS
IRONWOOD       CLOUDY    34  32  93 SE6       29.60F
MANITOWISH WTR NOT AVBL
ARBOR VITAE    NOT AVBL
EAGLE RIVER    NOT AVBL
LAND O LAKES   NOT AVBL
RHINELANDER    CLOUDY    34  33  96 S9        29.68F FOG
PHILLIPS       NOT AVBL
ANTIGO         NOT AVBL
TOMAHAWK       NOT AVBL
MERRILL        NOT AVBL
$$

WIZ013-073-230500-
NORTHEAST WISCONSIN

CITY           SKY/WX    TMP DP  RH WIND       PRES   REMARKS
IRON MOUNTAIN  CLOUDY    35  33  92 S6        29.71S
MARINETTE      CLOUDY    37  36  93 CALM      29.76F
$$

WIZ017-030-035>037-045-230500-
CENTRAL WISCONSIN

CITY           SKY/WX    TMP DP  RH WIND       PRES   REMARKS
MEDFORD        NOT AVBL
WAUSAU         FOG       35  35 100 CALM      29.68F VSB 1/4
MOSINEE        SNOW      36  36 100 SE7       29.70F VSB 1/4
MARSHFIELD     FOG       37  36  96 S6        29.68F VSB 1/4
WISC RAPIDS    CLOUDY    39  37  92 SE5       29.72F
STEVENS POINT  NOT AVBL
WAUPACA        NOT AVBL
SHAWANO        NOT AVBL
CLINTONVILLE   NOT AVBL
$$

WIZ038-039-048-051-230500-
FOX VALLEY

CITY           SKY/WX    TMP DP  RH WIND       PRES   REMARKS
NWS GREEN BAY  FOG       39  38  96 S3        29.76F VSB 1/2
APPLETON       FOG       37  37 100 VRB5      29.76F VSB 1/2
OSHKOSH        CLOUDY    41  40  96 S5        29.76S FOG
FOND DU LAC    CLOUDY    45  42  89 S8        29.76F FOG
$$

WIZ022-050-052-230500-
EAST CENTRAL WISCONSIN

CITY           SKY/WX    TMP DP  RH WIND       PRES   REMARKS
STURGEON BAY   CLOUDY    39  37  93 S3        29.78F
MANITOWOC      CLOUDY    43  43 100 S6        29.79F FOG
SHEBOYGAN      CLOUDY    42  40  92 CALM      29.79R FOG
$$

LMZ563-521-522-541>543-230500-
LAKESHORE

STATION/POSITION TIME  TEMP    WIND        PRES    VSBY  WAVE
                       AIR SEA DIR/SP/G                  HT/PER
                 (UTC) (F)     (DEG/KT/KT) (MB)    (MI)  (FT/S)
SHEBOYGAN LKSHOR 0300   43 36  160/ 10/ 10 1009.3F
KEWAUNEE LKSHORE 0300   40     190/  5/  7 1008.1R
NORTHPORT PIER   0300   37     220/  2/  5 1009.1R
N MID LAKE BUOY  0300   41 42  230/ 14/ 16 1008.6R         4/ 6
CHAMBERS ISLAND  0300   38     200/  4/  8 1008.5F
MENOMINEE LKSHOR 0300   37     200/  5/  6 1009.0R
$$


USA.gov is the U.S. government's official web portal to all federal, state and local government web resources and services.